Crane, MT

4:19 AM MST on February 08, 2016 (GMT -0700)
Sidney-Richland Municipal

Weather History for KSDY - February, 2013

Change the Weather History Date:

Saturday, February 23, 2013

  Actual Average (KISN) Record (KISN)
Temperature  
Mean Temperature 32 °F 20 °F  
Max Temperature 44 °F 30 °F 58 °F (1958)
Min Temperature 19 °F 9 °F -28 °F (2003)
Degree Days  
Heating Degree Days 34 45  
Month to date heating degree days 1126  
Since 1 July heating degree days 6547  
Cooling Degree Days 0 0  
Month to date cooling degree days 0  
Year to date cooling degree days 0  
Moisture  
Dew Point 24 °F    
Average Humidity 73    
Maximum Humidity 93    
Minimum Humidity 53    
Precipitation  
Precipitation 0.00 in 0.02 in 0.33 in (1948)
Month to date precipitation 0.31  
Year to date precipitation 0.90  
Sea Level Pressure  
Sea Level Pressure 29.67 in    
Wind  
Wind Speed 6 mph (SW)    
Max Wind Speed 14 mph    
Max Gust Speed -    
Visibility 10 miles    
Events      
T = Trace of Precipitation, MM = Missing Value Source: NWS Daily Summary

Daily Weather History Graph

Daily Weather History Graph

Search for Another Location

Airport or City:

Trip Planner

Search our weather history database for the weather conditions in past years. The results will help you decide how hot, cold, wet, or windy it might be!

Date:

Astronomy

Feb. 23, 2013 Rise Set
Actual Time 6:48 AM MST 5:32 PM MST
Civil Twilight 6:16 AM MST 6:04 PM MST
Nautical Twilight 5:41 AM MST 6:39 PM MST
Astronomical Twilight 5:05 AM MST 7:15 PM MST
Moon 3:41 PM MST (2/23) 5:17 AM MST (2/23)
Length of Visible Light 11h 47m
Length of Day
10h 44m
Waxing Gibbous, 95% of the Moon is Illuminated
Feb 23
Waxing Gibbous
Feb 25
Full
Mar 4
Last Quarter
Mar 11
New
Mar 19
First Quarter

Hourly Weather History & Observations

Time (MST) Temp. Windchill Dew Point Humidity Pressure Visibility Wind Dir Wind Speed Gust Speed Precip Events Conditions
12:15 AM 21.2 °F 14.9 °F 19.4 °F 93% 29.68 in 10.0 mi SSW 4.6 mph - N/A   Clear
12:35 AM 23.0 °F 18.4 °F 17.6 °F 80% 29.68 in 10.0 mi SSW 3.5 mph - N/A   Clear
12:55 AM 21.2 °F 16.4 °F 17.6 °F 86% 29.67 in 10.0 mi SSW 3.5 mph - N/A   Clear
1:15 AM 21.2 °F 14.9 °F 17.6 °F 86% 29.67 in 10.0 mi SSW 4.6 mph - N/A   Clear
1:35 AM 21.2 °F 16.4 °F 17.6 °F 86% 29.66 in 10.0 mi SSW 3.5 mph - N/A   Clear
1:55 AM 19.4 °F 11.5 °F 15.8 °F 86% 29.66 in 10.0 mi South 5.8 mph - N/A   Clear
2:15 AM 21.2 °F 14.9 °F 17.6 °F 86% 29.65 in 10.0 mi South 4.6 mph - N/A   Clear
2:35 AM 19.4 °F 12.8 °F 17.6 °F 93% 29.64 in 10.0 mi South 4.6 mph - N/A   Clear
2:55 AM 21.2 °F 16.4 °F 17.6 °F 86% 29.63 in 10.0 mi SSW 3.5 mph - N/A   Clear
3:15 AM 21.2 °F 14.9 °F 17.6 °F 86% 29.63 in 10.0 mi SSW 4.6 mph - N/A   Clear
3:35 AM 21.2 °F 14.9 °F 17.6 °F 86% 29.63 in 10.0 mi SSW 4.6 mph - N/A   Clear
3:55 AM 21.2 °F 14.9 °F 17.6 °F 86% 29.62 in 10.0 mi South 4.6 mph - N/A   Clear
4:15 AM 21.2 °F 14.9 °F 17.6 °F 86% 29.62 in 10.0 mi South 4.6 mph - N/A   Clear
4:55 AM 21.2 °F 13.6 °F 19.4 °F 93% 29.62 in 10.0 mi SW 5.8 mph - N/A   Partly Cloudy
5:15 AM 21.2 °F 16.4 °F 19.4 °F 93% 29.62 in 10.0 mi SSW 3.5 mph - N/A   Mostly Cloudy
5:35 AM 23.0 °F 17.0 °F 17.6 °F 80% 29.61 in 10.0 mi South 4.6 mph - N/A   Scattered Clouds
5:55 AM 21.2 °F 14.9 °F 19.4 °F 93% 29.62 in 10.0 mi South 4.6 mph - N/A   Clear
6:35 AM 23.0 °F - 19.4 °F 86% 29.61 in 10.0 mi Calm Calm - N/A   Overcast
6:55 AM 24.8 °F - 19.4 °F 80% 29.61 in 10.0 mi Calm Calm - N/A   Mostly Cloudy
7:15 AM 24.8 °F - 19.4 °F 80% 29.61 in 10.0 mi Calm Calm - N/A   Partly Cloudy
7:35 AM 24.8 °F - 21.2 °F 86% 29.61 in 10.0 mi Calm Calm - N/A   Clear
7:55 AM 26.6 °F 20.0 °F 21.2 °F 80% 29.61 in 10.0 mi South 5.8 mph - N/A   Clear
8:15 AM 26.6 °F 21.2 °F 23.0 °F 86% 29.61 in 10.0 mi South 4.6 mph - N/A   Partly Cloudy
8:35 AM 28.4 °F 23.3 °F 24.8 °F 86% 29.61 in 10.0 mi SSE 4.6 mph - N/A   Partly Cloudy
8:56 AM 28.4 °F 22.2 °F 23.0 °F 80% 29.62 in 10.0 mi SSW 5.8 mph - N/A   Partly Cloudy
9:15 AM 30.2 °F 25.4 °F 24.8 °F 80% 29.62 in 10.0 mi South 4.6 mph - N/A   Partly Cloudy
9:35 AM 30.2 °F 23.4 °F 24.8 °F 80% 29.62 in 10.0 mi South 6.9 mph - N/A   Mostly Cloudy
9:55 AM 32.0 °F 24.8 °F 21.2 °F 64% 29.62 in 10.0 mi South 8.1 mph - N/A   Mostly Cloudy
10:15 AM 33.8 °F 25.8 °F 24.8 °F 70% 29.62 in 10.0 mi South 10.4 mph - N/A   Overcast
10:35 AM 33.8 °F 27.0 °F 24.8 °F 70% 29.62 in 10.0 mi South 8.1 mph - N/A   Mostly Cloudy
10:55 AM 35.6 °F 28.6 °F 24.8 °F 65% 29.62 in 10.0 mi SSW 9.2 mph - N/A   Scattered Clouds
11:15 AM 37.4 °F 31.4 °F 24.8 °F 60% 29.62 in 10.0 mi South 8.1 mph - N/A   Partly Cloudy
11:35 AM 39.2 °F 33.6 °F 24.8 °F 56% 29.62 in 10.0 mi South 8.1 mph - N/A   Clear
11:55 AM 39.2 °F 33.6 °F 26.6 °F 61% 29.62 in 10.0 mi South 8.1 mph - N/A   Scattered Clouds
12:15 PM 39.2 °F 33.0 °F 24.8 °F 56% 29.62 in 10.0 mi South 9.2 mph - N/A   Partly Cloudy
12:35 PM 42.8 °F 38.6 °F 26.6 °F 53% 29.63 in 10.0 mi South 6.9 mph - N/A   Clear
12:55 PM 42.8 °F 38.0 °F 26.6 °F 53% 29.63 in 10.0 mi South 8.1 mph - N/A   Scattered Clouds
1:15 PM 42.8 °F 38.0 °F 26.6 °F 53% 29.63 in 10.0 mi WSW 8.1 mph - N/A   Mostly Cloudy
1:35 PM 42.8 °F 39.3 °F 28.4 °F 57% 29.63 in 10.0 mi WSW 5.8 mph - N/A   Overcast
1:55 PM 42.8 °F 39.3 °F 28.4 °F 57% 29.63 in 10.0 mi WSW 5.8 mph - N/A   Overcast
2:15 PM 42.8 °F 40.1 °F 28.4 °F 57% 29.63 in 10.0 mi SW 4.6 mph - N/A   Overcast
2:35 PM 44.6 °F 42.2 °F 28.4 °F 53% 29.64 in 10.0 mi West 4.6 mph - N/A   Mostly Cloudy
2:55 PM 44.6 °F 41.4 °F 28.4 °F 53% 29.64 in 10.0 mi West 5.8 mph - N/A   Partly Cloudy
3:15 PM 44.6 °F 39.7 °F 28.4 °F 53% 29.65 in 10.0 mi WNW 9.2 mph - N/A   Clear
3:35 PM 42.8 °F 37.5 °F 28.4 °F 57% 29.66 in 10.0 mi WNW 9.2 mph - N/A   Clear
3:55 PM 41.0 °F 35.2 °F 28.4 °F 61% 29.67 in 10.0 mi WNW 9.2 mph - N/A   Clear
4:15 PM 39.2 °F 33.6 °F 30.2 °F 70% 29.68 in 10.0 mi NW 8.1 mph - N/A   Clear
4:35 PM 39.2 °F 33.6 °F 28.4 °F 65% 29.69 in 10.0 mi NW 8.1 mph - N/A   Partly Cloudy
5:15 PM 37.4 °F 29.3 °F 28.4 °F 70% 29.70 in 10.0 mi NW 12.7 mph - N/A   Mostly Cloudy
5:55 PM 37.4 °F 29.8 °F 28.4 °F 70% 29.73 in 10.0 mi WNW 11.5 mph - N/A   Overcast
6:15 PM 37.4 °F 29.8 °F 30.2 °F 75% 29.74 in 10.0 mi NW 11.5 mph - N/A   Overcast
6:35 PM 37.4 °F 29.8 °F 28.4 °F 70% 29.75 in 10.0 mi NW 11.5 mph - N/A   Overcast
6:55 PM 37.4 °F 29.3 °F 28.4 °F 70% 29.76 in 10.0 mi WNW 12.7 mph - N/A   Overcast
7:15 PM 37.4 °F 28.9 °F 28.4 °F 70% 29.76 in 10.0 mi WNW 13.8 mph - N/A   Overcast
7:35 PM 35.6 °F 28.0 °F 26.6 °F 70% 29.77 in 10.0 mi WNW 10.4 mph - N/A   Overcast
8:15 PM 35.6 °F 27.1 °F 26.6 °F 70% 29.78 in 10.0 mi WNW 12.7 mph - N/A   Overcast
8:35 PM 35.6 °F 26.6 °F 26.6 °F 70% 29.79 in 10.0 mi WNW 13.8 mph - N/A   Overcast
9:15 PM 35.6 °F 27.5 °F 26.6 °F 70% 29.79 in 10.0 mi WNW 11.5 mph - N/A   Overcast
9:35 PM 35.6 °F 29.2 °F 26.6 °F 70% 29.80 in 10.0 mi WNW 8.1 mph - N/A   Overcast
9:55 PM 35.6 °F 28.0 °F 26.6 °F 70% 29.80 in 10.0 mi WNW 10.4 mph - N/A   Overcast
10:15 PM 35.6 °F 29.9 °F 26.6 °F 70% 29.81 in 10.0 mi WNW 6.9 mph - N/A   Overcast
10:35 PM 35.6 °F 29.9 °F 26.6 °F 70% 29.81 in 10.0 mi West 6.9 mph - N/A   Overcast
10:55 PM 35.6 °F - 26.6 °F 70% 29.82 in 10.0 mi Calm Calm - N/A   Overcast
11:15 PM 35.6 °F 32.8 °F 26.6 °F 70% 29.83 in 10.0 mi SW 3.5 mph - N/A   Overcast
11:35 PM 35.6 °F 29.2 °F 26.6 °F 70% 29.83 in 10.0 mi West 8.1 mph - N/A   Overcast